EW3600 Weather Reports


Display with metric or nautical units.
time (UTC)temp
F
wind
direction
speed
MPH
gust
MPH
rain 1hr
in
rain 24hr
in
rain mn
in
humidity
%
barometer
mb
20260505113024 0 0.0 0.0 0.00 0.00 0.00 1000.4
20260505111518 0 0.0 0.0 0.00 0.00 0.00 1000.4
20260505101533 0 0.0 0.0 0.00 0.00 0.00 1000.1
20260505100010 0 0.0 0.0 0.00 0.00 0.00 1000.2
20260505094600 0 0.0 0.0 0.00 0.00 0.00 1000.1
20260505093040 0 0.0 0.0 0.00 0.00 0.00 1000.1
20260505091538 0 0.0 0.0 0.00 0.00 0.00 1000.1
20260505090012 0 0.0 0.0 0.00 0.00 0.00 1000.0
20260505084508 0 0.0 0.0 0.00 0.00 0.00 999.9
20260505083105 0 0.0 0.0 0.00 0.00 0.00 999.6
20260505081554 0 0.0 0.0 0.00 0.00 0.00 999.6
20260505080038 0 0.0 0.0 0.00 0.00 0.00 999.8
20260505074516 0 0.0 0.0 0.00 0.00 0.00 1000.0
20260505073012 0 0.0 0.0 0.00 0.00 0.00 1000.3
20260505071556 0 0.0 0.0 0.00 0.00 0.00 1000.5
20260505070049 0 0.0 0.0 0.00 0.00 0.00 1000.6
20260505064523 0 0.0 0.0 0.00 0.00 0.00 1000.6
20260505063019 0 0.0 0.0 0.00 0.00 0.00 1000.3
20260505061638 0 0.0 0.0 0.00 0.00 0.00 1000.8
20260505060101 0 0.0 0.0 0.00 0.00 0.00 1001.1
20260505054531 0 0.0 0.0 0.00 0.00 0.00 1001.3
20260505053035 52 314 0.0 2.0 0.00 0.00 0.00 54 1000.8
20260505051529 53 325 0.0 7.0 0.00 0.00 0.00 53 1000.7
20260505041533 57 30 6.0 10.0 0.00 0.00 0.00 44 1000.3
20260505040033 58 29 2.0 6.0 0.00 0.00 0.00 42 1000.2
20260505034516 59 30 3.0 8.0 0.00 0.00 0.00 39 1000.2
20260505033014 58 27 0.0 7.0 0.00 0.00 0.00 41 999.9
20260505031558 57 45 0.0 9.0 0.00 0.00 0.00 45 999.6
20260505030054 56 15 4.0 11.0 0.00 0.00 0.00 50 999.8
20260505024539 56 329 3.0 8.0 0.00 0.00 0.00 49 999.4
20260505023036 58 158 6.0 11.0 0.00 0.00 0.00 42 998.7
20260505021515 59 161 10.0 16.0 0.00 0.00 0.00 42 998.5
20260505020015 60 143 12.0 17.0 0.00 0.00 0.00 42 998.6
20260505014557 61 155 16.0 22.0 0.00 0.00 0.00 41 998.7
20260505013104 62 152 14.0 22.0 0.00 0.00 0.00 39 998.7
20260505011538 63 162 21.0 27.0 0.00 0.00 0.00 37 998.7
20260505010037 64 187 16.0 23.0 0.00 0.00 0.00 35 998.5
20260505004520 67 262 12.0 24.0 0.00 0.00 0.00 25 998.5
20260505003021 67 312 8.0 14.0 0.00 0.00 0.00 24 998.5
20260505001605 68 334 9.0 15.0 0.00 0.00 0.00 27 998.3
20260504234541 68 49 9.0 17.0 0.00 0.00 0.00 28 998.2
20260504233052 67 25 17.0 27.0 0.00 0.00 0.00 29 998.3
20260504231523 67 26 10.0 16.0 0.00 0.00 0.00 27 998.2
20260504230020 68 4 9.0 17.0 0.00 0.00 0.00 24 998.1
20260504224507 67 356 13.0 30.0 0.00 0.00 0.00 26 998.4
20260504223006 67 346 18.0 23.0 0.00 0.00 0.00 29 998.5
20260504221505 71 345 0.0 6.0 0.00 0.00 0.00 21 998.6
20260504220003 73 128 4.0 8.0 0.00 0.00 0.00 21 998.7
20260504214558 71 191 0.0 6.0 0.00 0.00 0.00 23 999.0
20260504213055 68 59 1.0 13.0 0.00 0.00 0.00 22 999.2
20260504211552 66 15 13.0 23.0 0.00 0.00 0.00 27 999.6
20260504210105 68 28 4.0 9.0 0.00 0.00 0.00 24 999.7
20260504204533 68 305 0.0 9.0 0.00 0.00 0.00 24 999.7
20260504203043 69 36 2.0 6.0 0.00 0.00 0.00 24 999.8
20260504201508 69 159 1.0 5.0 0.00 0.00 0.00 23 999.9
20260504200006 68 207 7.0 12.0 0.00 0.00 0.00 25 1000.2
20260504194546 68 130 11.0 18.0 0.00 0.00 0.00 28 1000.3
20260504193046 69 153 12.0 23.0 0.00 0.00 0.00 27 1000.6
20260504191524 69 160 12.0 20.0 0.00 0.00 0.00 29 1000.8
20260504190018 68 186 10.0 22.0 0.00 0.00 0.00 30 1001.0
20260504184557 67 151 11.0 21.0 0.00 0.00 0.00 31 1001.4
20260504183055 66 173 12.0 20.0 0.00 0.00 0.00 31 1001.7
20260504181540 66 210 12.0 21.0 0.00 0.00 0.00 31 1001.9
20260504180032 65 214 15.0 22.0 0.00 0.00 0.00 32 1002.2
20260504174511 64 168 14.0 20.0 0.00 0.00 0.00 32 1002.3
20260504173009 64 177 14.0 21.0 0.00 0.00 0.00 33 1002.4
20260504171550 63 181 14.0 24.0 0.00 0.00 0.00 35 1002.6